Location: Casteau
(50.5142°N, 4.0161°E)
Time: 05:20:01
(UTC+00:00)

Vanguard 1 Rocket - Pass Details

Date: 04 August 2021
Orbit: 650 x 4226 km, 34.3° (Epoch: 21 September)

Event Time Altitude Azimuth Distance (km) Brightness Sun altitude
Rises 05:35:58 0° 182° (S) 8,458 12.2 11.0°
Reaches altitude 10° 05:46:51 10° 163° (SSE) 7,280 12.1 12.7°
Maximum altitude 05:56:54 14° 138° (SE) 6,432 12.3 14.2°
Drops below altitude 10° 06:05:31 10° 113° (ESE) 6,171 12.8 15.6°
Sets 06:12:49 0° 92° (E) 6,470 13.4 16.7°
